Location: Helds Island Access
(38.5526°N, 91.5997°W)
Time: 07:18:38
(UTC-06:00)

Daily predictions for brighter satellites

Satellite Brightness Start Highest point End
(mag) Time Altitude Azimuth Time Altitude Azimuth Time Altitude Azimuth
CZ-4 R/B 1.9 17:41:34 10° S 17:45:23 62° W 17:49:16 10° NNW
Cosmos 2333 Rocket 2.3 17:43:05 10° SSW 17:48:44 84° WNW 17:54:25 10° NNE
Cosmos 1743 Rocket 4.2 17:44:24 10° SSW 17:48:49 63° W 17:53:17 10° N
IDEFIX/ARIANE 42P 3.1 17:43:48 10° S 17:48:58 67° WSW 17:54:12 10° NNW
Cosmos 2219 Rocket 2.7 17:44:25 10° SSW 17:50:01 64° WNW 17:55:37 10° NNE
Cosmos 1328 Rocket 4.2 17:47:22 10° NNW 17:51:46 63° W 17:56:09 10° S
Cosmos 1626 3.7 17:50:55 10° SE 17:53:24 17° E 17:55:53 10° NE
Milstar 3 4.3 17:47:54 10° WSW 17:54:06 32° SSW 18:00:02 10° SE
MONITOR-E 4.2 17:53:12 10° SSE 17:56:20 60° ENE 17:59:28 10° N
SJ-6B 4.3 17:55:46 10° ESE 17:58:39 19° ENE 18:01:34 10° NNE
Aureole 2 Rocket 2.7 17:55:12 10° S 17:58:47 58° ESE 18:02:44 10° NNE
Cosmos 1151 Rocket 2.9 17:54:35 10° N 17:58:53 75° E 18:03:09 10° SSE
Cosmos 371 Rocket 4.1 17:56:19 10° SSW 18:01:00 53° WNW 18:05:44 10° N
Cosmos 1703 4.1 17:58:14 10° SSE 18:01:37 29° E 18:05:02 10° NNE
Cosmos 1515 Rocket 4.1 17:57:58 10° NNW 18:02:23 65° W 18:06:46 10° S
Cosmos 2278 Rocket 2.2 17:56:49 10° NNW 18:02:32 75° ENE 18:08:11 10° SSE
SMAP 4.1 18:00:12 10° S 18:04:42 50° W 18:09:15 10° NNW
Cosmos 1455 3.6 18:03:54 10° NNE 18:06:29 17° ENE 18:09:04 10° ESE
Cosmos 1805 Rocket 4.1 18:03:29 10° SSE 18:07:36 39° E 18:11:46 10° NNE
SKYMED 2 3.5 18:04:43 10° NNE 18:09:04 73° ESE 18:13:23 10° S
Cosmos 1726 2.3 18:06:29 10° N 18:10:15 79° W 18:14:01 10° S
Lacrosse 4 Rocket 3.4 18:11:24 10° NNE 18:12:09 11° NE 18:12:09 11° NE
Cosmos 372 Rocket 3.9 18:08:32 10° NNW 18:13:39 77° ENE 18:18:44 10° SSE
FREGAT/IRIS 3.8 18:16:11 10° SE 18:18:38 23° ENE 18:21:07 10° NNE
Cosmos 540 Rocket 4.0 18:13:52 10° SSW 18:18:58 60° WNW 18:24:05 10° N
Meteor 1-27 4.2 18:14:03 10° N 18:19:54 79° E 18:25:44 10° SSE
Sich 1 3.5 18:20:53 10° SSE 18:24:59 38° E 18:29:06 10° NNE
Cosmos 2237 Rocket 2.9 18:19:47 10° SW 18:25:16 54° WNW 18:30:49 10° NNE
Cosmos 1340 Rocket 2.7 18:21:49 10° S 18:25:46 90° W 18:29:42 10° N
Abrixas 3.6 18:23:05 10° W 18:25:48 33° NNW 18:27:16 20° NNE
Cosmos 1300 3.7 18:22:22 10° NNW 18:26:06 49° W 18:29:48 10° SSW
SL-14 R/B 4.3 18:23:04 10° SSW 18:26:51 47° W 18:30:43 10° N
USA 215 3.5 18:21:36 11° ESE 18:27:39 48° NE 18:33:52 10° NW
Cosmos 1484 Rocket 3.8 18:25:55 10° S 18:29:43 51° W 18:33:37 10° NNW
Cosmos 2058 3.4 18:26:12 10° SSW 18:30:16 62° W 18:34:21 10° N
Cosmos 1461 2.8 18:26:24 10° SSW 18:30:37 82° ESE 18:33:36 18° NNE
SL-16 R/B 2.1 18:26:31 10° SSW 18:32:08 73° ESE 18:37:47 10° NNE
Cosmos 1633 Rocket 3.4 18:28:19 10° SSE 18:32:27 40° E 18:36:08 13° NNE
Cosmos 304 Rocket 3.9 18:34:51 10° SSW 18:39:39 76° WNW 18:44:29 10° NNE
BREEZE-M DEB (TANK) 2.8 18:41:12 10° WSW 18:43:27 39° NNW 18:44:01 33° N
Cosmos 2297 3.6 18:39:29 10° NNW 18:45:13 79° ENE 18:50:57 10° SSE
OTV 4 3.2 18:47:05 10° WSW 18:49:00 16° SSW 18:50:53 10° SSE
Meteor 1-28 Rocket 4.2 18:46:49 10° N 18:50:24 46° WNW 18:53:58 10° SSW
BREEZE-M DEB (TANK) 3.4 18:49:50 10° WNW 18:51:34 17° NNW 18:51:39 17° NNW
Cosmos 1356 Rocket 3.2 18:47:56 10° S 18:51:55 86° WNW 18:55:25 13° N
Cosmos 1900 4.2 18:51:46 10° NNW 18:56:46 84° ENE 19:01:47 10° SSE
COSMO-SKYMED 1 4.3 18:53:07 10° N 18:56:58 31° WNW 19:00:49 10° SW
Cosmos 1707 Rocket 3.6 18:53:28 10° N 18:57:49 78° W 19:02:08 10° S
CZ-3A R/B 2.8 18:53:58 10° NW 18:58:33 60° NE 19:01:31 28° ESE
Aureole 1 Rocket 3.7 18:54:34 10° S 18:59:38 66° ESE 19:05:29 14° NNE
Spot 2 Rocket 3.5 18:57:57 10° SSE 19:02:50 53° ENE 19:07:44 10° N
Resurs 01 Rocket 1.7 19:03:49 53° ENE 19:03:49 53° ENE 19:08:05 10° N
Cosmos 1184 Rocket 3.0 19:03:00 10° SSW 19:06:20 68° W 19:06:41 61° NW
Cosmos 1666 Rocket 3.9 19:02:27 10° SSW 19:06:44 63° W 19:11:05 10° N
Lacrosse 5 rocket 2.6 19:03:48 10° WNW 19:07:24 38° SW 19:10:49 12° SSE
FENGYUN 3A 3.5 19:02:54 10° SSE 19:08:10 64° ENE 19:13:30 10° N
USA 229 DEB 3.6 19:02:04 10° SSW 19:08:51 72° ESE 19:12:13 33° NE
USA 229 3.6 19:02:10 10° SSW 19:08:58 71° ESE 19:12:17 33° NE
Tiangong 1 3.8 19:08:24 10° SSW 19:08:40 11° S 19:08:40 11° S
BREEZE M DEB (TANK) 3.6 19:08:50 10° WNW 19:09:42 20° WNW 19:09:42 20° WNW
Cosmos 1627 Rocket 4.5 19:11:08 10° SSE 19:17:07 54° E 19:18:21 46° NE
Iridium 4 Rocket 3.0 19:13:53 10° S 19:18:29 88° W 19:19:41 48° N
ALOS 2.2 19:19:08 10° SSE 19:23:48 85° WSW 19:28:30 10° NNW
Cosmos 923 Rocket 3.8 19:19:09 10° SSW 19:24:21 79° ESE 19:24:48 72° NE
ATLAS 5 CENTAUR R/B 4.5 19:22:55 10° N 19:23:24 11° N 19:23:24 11° N
FengYun 1-2 T 4.2 19:21:32 10° SSE 19:27:06 82° WSW 19:32:40 10° NNW
Cosmos 1626 4.3 19:25:25 10° SW 19:28:33 25° WNW 19:31:36 11° NNW
Cosmos 1680 Rocket 3.8 19:26:27 10° S 19:30:32 53° SSE 19:30:32 53° SSE
Cosmos 292 Rocket 4.2 19:31:12 10° SSW 19:34:49 53° SSW 19:34:49 53° SSW
Cosmos 1603 3.5 19:31:03 10° SSW 19:36:40 90° N 19:36:59 80° NNE
Cosmos 2242 Rocket 4.3 19:34:53 10° NNW 19:39:11 53° W 19:43:30 10° S
Cosmos 1455 4.3 19:38:59 10° NNW 19:42:10 26° W 19:45:22 10° SSW
Cosmos 2026 Rocket 3.9 19:42:00 10° S 19:47:46 77° SSE 19:47:46 77° SSE
Lacrosse 4 Rocket 3.9 19:47:51 10° NNW 19:48:34 15° NNW 19:48:34 15° NNW
USA 215 3.9 20:08:59 41° S 20:10:35 49° SW 20:16:55 10° NW
Cosmos 2369 Rocket 4.4 20:10:25 10° NNW 20:11:17 15° NNW 20:11:17 15° NNW
